Regional Weather Roundup
Issued by NWS Binghamton, NY

Home | Current Version | Previous Version | Text Only | Print | Product List | Glossary On
Versions: 1 2 3 4 5 6 7 8 9 10 11 12 13 14 15 16 17 18 19 20 21 22 23 24 25 26 27 28 29 30 31 32 33 34 35 36 37 38 39 40 41 42 43 44 45 46 47 48 49 50
000
ASUS41 KBGM 290310
RWRBGM
RWRBGM
BINGHAMTON REGIONAL WEATHER ROUNDUP
NATIONAL WEATHER SERVICE BINGHAMTON NY
1000 PM EST SUN DEC 28 2014

Note: "fair" indicates few or no clouds below 12,000 feet with no
significant weather and/or obstructions to visibility.

* = Station(s) that does not report precipitation, such as rain,
snow, etc, also no thunder or fog.

!NYZ009-015>018-022>025-036-037-044>046-055>057-062-290400
...CENTRAL NEW YORK...

CITY           SKY/WX    TMP DP  RH WIND       PRES   REMARKS
BINGHAMTON     PTCLDY    29  24  82 NW5       30.03S WCI  24
CORTLAND       CLOUDY    32  28  86 SW3       30.07S
DANSVILLE      MOCLDY    35  25  66 W3        30.09R
ELMIRA         CLOUDY    33  25  72 SW5       30.08R WCI  29
ITHACA         CLOUDY    33  25  73 W5        30.07S WCI  28
HAMILTON       CLEAR     34  25  69 W6        30.04S WCI  29
MONTICELLO     CLOUDY    34  27  75 NW10      30.02R WCI  26
NORWICH        CLEAR     30  23  74 CALM      30.06R
ONEONTA        PTCLDY    28  21  74 W7        30.01R WCI  21
PENN YAN       CLOUDY    33  24  69 SW6       30.07S WCI  28
ROME           CLOUDY    34  26  72 W8        30.07R WCI  27
SIDNEY         CLEAR     32  28  86 CALM      30.06S
SYRACUSE       CLOUDY    34  25  69 SW12      30.06F WCI  25
$$

!PAZ038>040-043-044-047-048-072-290400
...NORTHEAST PENNSYLVANIA...

CITY           SKY/WX    TMP DP  RH WIND       PRES   REMARKS
HAZLETON       CLOUDY    36  32  87 NW5       30.06R WCI  32
SCRANTON       CLOUDY    37  26  64 NW15      30.06R WCI  28
TOWANDA*       CLEAR     36  21  55 W6        30.11R WCI  31
$$
&&
KEY
WCI = WIND CHILL INDEX
VSB = VISIBILITY
HX  = HEAT INDEX
$$



USA.gov is the U.S. government's official web portal to all federal, state and local government web resources and services.